User: anonymous   Login
Location: Newark
(16.3678°N, 77.8722°E)
Time: 03:46:06
(UTC+00:00)
Language:

Transit 4A - Orbit

View from above orbital plane
View from above orbital plane
View from above satellite
View from above satellite

Ground track
Ground track

The orbit data is extracted from the following two-line orbital elements,

1   116U 61015A   19340.44792497 -.00000057  00000-0  15143-4 0  9995
2   116  66.8099 322.4699 0072142 149.3562 211.1762 13.91761740965312
Epoch (UTC): 06 December 2019 10:45:00
Eccentricity: 0.0072142
inclination: 66.8099°
perigee height: 870 km
apogee height: 975 km
right ascension of ascending node: 322.4699°
argument of perigee: 149.3562°
revolutions per day: 13.91761740
mean anomaly at epoch: 211.1762°
orbit number at epoch: 96531

The dashed part of the orbit path shows where the satellite is in the earth's shadow,  

DLR